Flag for India Weather past 2 weeks in Gurgaon, Haryana, India

Now
50 °F

Fog.


Feels Like: 48 °F
Forecast: 45 / 63 °F
Wind: 5 mph from West

Location: New Delhi Palam Airport

Current Time: Dec 25, 2014 at 8:01:52 PM

Latest Report: Dec 25, 2014 at 7:00 PM


Visibility: 1 mi

Pressure: 30.07 "Hg

Humidity: 100%

Dew point: 50 °F

Location of GurgaonLocation

Historic Weather in Gurgaon — Graph

°F

Gurgaon temperature yesterday

Maximum temperature yesterday: 54 °F (at 3:30 PM)
Minimum temperature yesterday: 41 °F (at 8:00 AM)
Average temperature yesterday: 47 °F

Past Weeks' High & Low Weather Summary

 TemperatureHumidityPressure
High72 °F (Dec 11, 4:00 PM)100% (Dec 14, 8:00 AM)30.24 "Hg (Dec 14, 8:00 AM)
Low41 °F (Dec 24, 8:00 AM)22% (Dec 10, 6:30 PM)29.92 "Hg (Dec 13, 3:30 PM)
Average53 °F85%30.08 "Hg
* Reported Dec 10 6:30 PM — Dec 25 6:30 PM, Gurgaon, Weather by CustomWeather, © 2014

Note: Actual official high and low records may vary slightly from our data, if they occured in-between our weather recording intervals... More about our weather records

Advertising

Gurgaon weather history for previous 24 hours

 ConditionsComfort  
Time TempWeatherWind HumidityBarometerVisibility
6:30 PM
Dec 25
50 °FFog.5 mph82%30.07 "Hg1 mi
6:00 PM52 °FFog.5 mph77%30.07 "Hg1 mi
5:30 PM54 °FClear.6 mph67%30.07 "Hg1 mi
4:30 PM55 °FClear.6 mph67%30.07 "Hg1 mi
4:00 PM55 °FClear.6 mph67%30.07 "Hg1 mi
3:30 PM55 °FFog.7 mph77%30.07 "Hg1 mi
3:00 PM55 °FFog.7 mph77%30.07 "Hg1 mi
2:30 PM55 °FFog.6 mph77%30.09 "Hg1 mi
2:00 PM52 °FFog.7 mph82%30.12 "Hg1 mi
1:00 PM50 °FFog.7 mph88%30.12 "Hg1 mi
12:30 PM48 °FFog.6 mph94%30.15 "Hg1 mi
12:00 PM46 °FFog.N/A93%30.18 "Hg1 mi
11:00 AM45 °FFog.7 mph93%30.18 "Hg1 mi
10:30 AM45 °FFog.6 mph93%30.18 "Hg1 mi
10:00 AM45 °FFog.8 mph93%30.18 "Hg0 mi
9:30 AM43 °FFog.7 mph100%30.18 "Hg0 mi
9:00 AM43 °FFog.8 mph100%30.15 "Hg0 mi
8:30 AM43 °FFog.6 mph100%30.15 "Hg0 mi
8:00 AM43 °FFog.8 mph100%30.12 "Hg0 mi
7:30 AM43 °FFog.6 mph100%30.12 "Hg0 mi
7:00 AM43 °FFog.5 mph100%30.09 "Hg0 mi
6:30 AM43 °FFog.5 mph100%30.09 "Hg0 mi
6:00 AM43 °FFog.6 mph100%30.09 "Hg0 mi
5:30 AM43 °FFog.6 mph100%30.09 "Hg0 mi
5:00 AM43 °FFog.6 mph100%30.07 "Hg0 mi
4:30 AM43 °FFog.6 mph100%30.07 "Hg0 mi
3:30 AM43 °FFog.6 mph100%30.09 "Hg0 mi
3:00 AM43 °FFog.6 mph100%30.09 "Hg0 mi
2:30 AM45 °FFog.5 mph100%30.09 "Hg0 mi
2:00 AM45 °FFog.5 mph100%30.09 "Hg0 mi
1:30 AM45 °FFog.7 mph100%30.09 "Hg0 mi
1:00 AM45 °FFog.7 mph100%30.09 "Hg0 mi
12:30 AM45 °FFog.7 mph100%30.12 "Hg0 mi
12:00 AM45 °FFog.7 mph100%30.12 "Hg0 mi
11:30 PM
Dec 24
45 °FFog.7 mph100%30.12 "Hg0 mi
11:00 PM46 °FFog.5 mph100%30.12 "Hg0 mi
10:30 PM46 °FFog.6 mph100%30.12 "Hg0 mi
10:00 PM46 °FFog.6 mph100%30.12 "Hg0 mi
9:30 PM46 °FFog.5 mph100%30.12 "Hg0 mi
9:00 PM48 °FFog.6 mph94%30.12 "Hg0 mi
8:30 PM48 °FFog.6 mph94%30.12 "Hg0 mi
8:00 PM48 °FFog.6 mph94%30.12 "Hg0 mi
Weather by CustomWeather, © 2014

See weather overviewHow to use our weather pages